Location: Madrid
(40.4000°N, 3.6830°W)
Time: 14:38:19
(UTC+02:00)

ISS - Pass Details

Date: 22 March 2017
Orbit: 400 x 408 km, 51.6° (Epoch: 25 July)

Event Time Altitude Azimuth Distance (km) Brightness Sun altitude
Exits shadow 03:59:06 - 70° (ENE) 1,918 0.4 -35.5°
Enters shadow 05:01:20 -57° 294° (WNW) 11,172 3.5 -25.5°
Maximum altitude 05:32:40 58° 33° (NNE) 493 -3.3 -19.9°
